Rantoul, IL

2:33 PM CST on February 11, 2016 (GMT -0600)
Rantoul

Weather History for KTIP - August, 2013

Change the Weather History Date:

Sunday, August 18, 2013

  Actual Average (KCMI) Record (KCMI)
Temperature  
Mean Temperature 72 °F 72 °F  
Max Temperature 84 °F 83 °F 89 °F (2011)
Min Temperature 61 °F 62 °F 33 °F (1996)
Degree Days  
Heating Degree Days 0 0  
Month to date heating degree days 0  
Since 1 June heating degree days 19  
Since 1 July heating degree days 2  
Cooling Degree Days 8 7  
Month to date cooling degree days 143  
Year to date cooling degree days 740  
Since 1 June cooling degree days 648  
Growing Degree Days 22 (Base 50)    
Moisture  
Dew Point 58 °F    
Average Humidity 63    
Maximum Humidity 82    
Minimum Humidity 37    
Precipitation  
Precipitation 0.00 in 0.13 in 1.76 in (2015)
Month to date precipitation 1.80  
Year to date precipitation 25.47  
Sea Level Pressure  
Sea Level Pressure 30.16 in    
Wind  
Wind Speed 4 mph (NE)    
Max Wind Speed 7 mph    
Max Gust Speed -    
Visibility 10 miles    
Events      
T = Trace of Precipitation, MM = Missing Value Source: NWS Daily Summary

Daily Weather History Graph

Daily Weather History Graph

Search for Another Location

Airport or City:

Trip Planner

Search our weather history database for the weather conditions in past years. The results will help you decide how hot, cold, wet, or windy it might be!

Date:

Astronomy

Aug. 18, 2013 Rise Set
Actual Time 6:06 AM CDT 7:45 PM CDT
Civil Twilight 5:37 AM CDT 8:14 PM CDT
Nautical Twilight 5:02 AM CDT 8:48 PM CDT
Astronomical Twilight 4:25 AM CDT 9:25 PM CDT
Moon 5:51 PM CDT (8/18) 3:15 AM CDT (8/18)
Length of Visible Light 14h 36m
Length of Day
13h 38m
Waxing Gibbous, 92% of the Moon is Illuminated
Aug 18
Waxing Gibbous
Aug 20
Full
Aug 28
Last Quarter
Sep 5
New
Sep 12
First Quarter

Hourly Weather History & Observations

Time (CDT) Temp. Heat Index Dew Point Humidity Pressure Visibility Wind Dir Wind Speed Gust Speed Precip Events Conditions
12:15 AM 64.8 °F - 56.8 °F 75% 30.18 in 10.0 mi NE 3.5 mph - N/A   Clear
12:35 AM 64.6 °F - 56.7 °F 75% 30.17 in 10.0 mi NE 3.5 mph - N/A   Clear
1:15 AM 64.8 °F - 56.5 °F 74% 30.17 in 10.0 mi ENE 4.6 mph - N/A   Clear
1:35 AM 64.6 °F - 56.5 °F 75% 30.17 in 10.0 mi ENE 4.6 mph - N/A   Clear
1:55 AM 64.4 °F - 56.3 °F 75% 30.17 in 10.0 mi NE 4.6 mph - N/A   Clear
2:15 AM 63.9 °F - 56.3 °F 76% 30.17 in 10.0 mi NE 3.5 mph - N/A   Clear
2:35 AM 63.7 °F - 56.3 °F 77% 30.17 in 10.0 mi NE 4.6 mph - N/A   Clear
2:55 AM 63.3 °F - 55.9 °F 77% 30.16 in 10.0 mi NE 3.5 mph - N/A   Clear
3:15 AM 63.5 °F - 55.6 °F 75% 30.16 in 10.0 mi NNE 4.6 mph - N/A   Clear
3:35 AM 63.5 °F - 55.6 °F 75% 30.16 in 10.0 mi NNE 4.6 mph - N/A   Clear
3:55 AM 63.3 °F - 55.4 °F 75% 30.16 in 10.0 mi NNE 5.8 mph - N/A   Clear
4:15 AM 63.0 °F - 55.4 °F 76% 30.15 in 10.0 mi NE 4.6 mph - N/A   Clear
4:35 AM 62.6 °F - 55.4 °F 77% 30.16 in 10.0 mi NE 3.5 mph - N/A   Clear
4:55 AM 62.1 °F - 55.2 °F 78% 30.16 in 10.0 mi NNE 4.6 mph - N/A   Clear
5:15 AM 61.7 °F - 55.4 °F 80% 30.16 in 10.0 mi NNE 4.6 mph - N/A   Clear
5:35 AM 61.2 °F - 55.4 °F 81% 30.17 in 10.0 mi NNE 5.8 mph - N/A   Clear
5:55 AM 61.2 °F - 55.4 °F 81% 30.18 in 10.0 mi NNE 4.6 mph - N/A   Clear
6:15 AM 61.0 °F - 55.0 °F 81% 30.18 in 10.0 mi NNE 5.8 mph - N/A   Clear
6:35 AM 61.0 °F - 55.2 °F 81% 30.19 in 10.0 mi NNE 6.9 mph - N/A   Clear
6:55 AM 61.2 °F - 54.9 °F 80% 30.19 in 10.0 mi NNE 5.8 mph - N/A   Clear
7:35 AM 64.4 °F - 56.1 °F 74% 30.19 in 10.0 mi NE 6.9 mph - N/A   Clear
7:55 AM 65.3 °F - 57.0 °F 75% 30.20 in 10.0 mi NE 5.8 mph - N/A   Clear
8:15 AM 66.2 °F - 58.1 °F 75% 30.21 in 10.0 mi ENE 4.6 mph - N/A   Clear
8:35 AM 67.3 °F - 58.5 °F 73% 30.21 in 10.0 mi ENE 5.8 mph - N/A   Clear
8:55 AM 68.0 °F - 59.2 °F 73% 30.21 in 10.0 mi ENE 3.5 mph - N/A   Clear
9:15 AM 70.0 °F - 59.7 °F 70% 30.20 in 10.0 mi ENE 3.5 mph - N/A   Clear
9:35 AM 70.7 °F - 60.1 °F 69% 30.21 in 10.0 mi Calm Calm - N/A   Clear
9:55 AM 72.5 °F - 60.6 °F 66% 30.20 in 10.0 mi NNE 3.5 mph - N/A   Clear
10:15 AM 73.9 °F - 60.8 °F 63% 30.20 in 10.0 mi NE 3.5 mph - N/A   Clear
10:35 AM 75.6 °F - 61.0 °F 60% 30.20 in 10.0 mi NE 5.8 mph - N/A   Clear
10:55 AM 77.4 °F - 61.5 °F 58% 30.20 in 10.0 mi NNE 3.5 mph - N/A   Clear
11:15 AM 78.4 °F - 60.8 °F 55% 30.19 in 10.0 mi North 5.8 mph - N/A   Clear
11:35 AM 79.2 °F - 59.7 °F 51% 30.19 in 10.0 mi NE 5.8 mph - N/A   Clear
11:55 AM 79.7 °F - 59.4 °F 50% 30.19 in 10.0 mi NE 4.6 mph - N/A   Clear
12:15 PM 81.0 °F 81.2 °F 58.3 °F 46% 30.18 in 10.0 mi NE 5.8 mph - N/A   Clear
12:35 PM 81.3 °F 81.6 °F 58.6 °F 46% 30.17 in 10.0 mi NNE 5.8 mph - N/A   Clear
12:55 PM 81.1 °F 81.2 °F 57.6 °F 44% 30.17 in 10.0 mi ENE 4.6 mph - N/A   Clear
1:15 PM 81.1 °F 81.3 °F 57.9 °F 45% 30.16 in 10.0 mi ENE 3.5 mph - N/A   Scattered Clouds
1:35 PM 82.6 °F 82.2 °F 57.2 °F 42% 30.16 in 10.0 mi East 5.8 mph - N/A   Scattered Clouds
1:55 PM 83.3 °F 82.8 °F 57.2 °F 41% 30.16 in 10.0 mi SE 5.8 mph - N/A   Scattered Clouds
2:15 PM 83.5 °F 82.8 °F 56.5 °F 40% 30.15 in 10.0 mi SE 3.5 mph - N/A   Scattered Clouds
2:55 PM 83.8 °F 83.3 °F 57.7 °F 41% 30.14 in 10.0 mi Calm Calm - N/A   Mostly Cloudy
3:15 PM 84.6 °F 83.5 °F 56.1 °F 38% 30.14 in 10.0 mi Calm Calm - N/A   Mostly Cloudy
3:35 PM 83.5 °F 82.8 °F 57.0 °F 40% 30.14 in 10.0 mi South 3.5 mph - N/A   Mostly Cloudy
3:55 PM 83.5 °F 82.8 °F 56.8 °F 40% 30.13 in 10.0 mi South 4.6 mph - N/A   Scattered Clouds
4:15 PM 84.0 °F 83.2 °F 56.5 °F 39% 30.13 in 10.0 mi South 3.5 mph - N/A   Scattered Clouds
4:35 PM 83.3 °F 82.6 °F 56.5 °F 40% 30.13 in 10.0 mi South 3.5 mph - N/A   Clear
4:55 PM 84.0 °F 83.2 °F 56.5 °F 39% 30.12 in 10.0 mi SW 4.6 mph - N/A   Clear
5:15 PM 84.2 °F 83.0 °F 55.2 °F 37% 30.12 in 10.0 mi Calm Calm - N/A   Clear
5:35 PM 83.5 °F 82.6 °F 55.8 °F 39% 30.12 in 10.0 mi South 3.5 mph - N/A   Clear
5:55 PM 83.3 °F 82.8 °F 57.0 °F 41% 30.12 in 10.0 mi SSW 3.5 mph - N/A   Clear
6:15 PM 83.1 °F 82.7 °F 57.6 °F 42% 30.11 in 10.0 mi Calm Calm - N/A   Clear
6:35 PM 82.4 °F 82.2 °F 57.6 °F 43% 30.12 in 10.0 mi Calm Calm - N/A   Clear
6:55 PM 81.5 °F 81.8 °F 59.2 °F 47% 30.12 in 10.0 mi Calm Calm - N/A   Clear
7:15 PM 79.7 °F - 61.2 °F 53% 30.13 in 10.0 mi Calm Calm - N/A   Clear
7:35 PM 77.7 °F - 61.3 °F 57% 30.13 in 10.0 mi Calm Calm - N/A   Clear
8:15 PM 73.4 °F - 61.3 °F 66% 30.13 in 10.0 mi Calm Calm - N/A   Clear
8:35 PM - - - N/A% 30.13 in 10.0 mi Calm Calm - N/A   Clear
8:55 PM 72.0 °F - 61.3 °F 69% 30.13 in 10.0 mi Calm Calm - N/A   Clear
9:15 PM 73.6 °F - 61.7 °F 66% 30.14 in 10.0 mi Calm Calm - N/A   Clear
9:35 PM 71.8 °F - 61.2 °F 69% 30.14 in 10.0 mi Calm Calm - N/A   Clear
9:55 PM 71.6 °F - 61.2 °F 70% 30.14 in 10.0 mi Calm Calm - N/A   Clear
10:15 PM 72.0 °F - 61.5 °F 70% 30.14 in 10.0 mi Calm Calm - N/A   Clear
10:35 PM 69.8 °F - 60.8 °F 73% 30.14 in 10.0 mi Calm Calm - N/A   Clear
10:55 PM 70.0 °F - 61.7 °F 75% 30.15 in 10.0 mi Calm Calm - N/A   Clear
11:15 PM 68.0 °F - 61.7 °F 80% 30.15 in 10.0 mi Calm Calm - N/A   Clear
11:35 PM 66.9 °F - 60.8 °F 81% 30.15 in 10.0 mi Calm Calm - N/A   Clear
11:55 PM 66.4 °F - 60.6 °F 82% 30.14 in 10.0 mi Calm Calm - N/A   Clear